(263761) = 2005 UC411 = 2008 KT9

Discovered at Kitt Peak on 2008-05-27 by Spacewatch.

Orbit

Orbit type: Main Belt

Note: WebGL enabled browser required.

epoch2023-02-25.0
epoch JD2460000.5
perihelion date2017-12-03.78753
perihelion JD2458091.28753
argument of perihelion (°)71.96836
ascending node (°)93.78002
inclination (°)4.40895
eccentricity0.0313329
perihelion distance (AU)2.9339077
Tisserand w.r.t. Jupiter3.2
ΔV w.r.t. Earth (km/sec)10.7
semimajor axis (AU)3.0288093
mean anomaly (°)356.98521
mean daily motion (°/day)0.18698040
aphelion distance (AU)3.124
period (years)5.27
P-vector [x]-0.96641615
P-vector [y]0.19695946
P-vector [z]0.16506604
Q-vector [x]-0.24526674
Q-vector [y]-0.89865567
Q-vector [z]-0.36367872
absolute magnitude16.52
phase slope0.15
uncertainty0
referenceMPEC 2023-F189
observations used282
oppositions13
arc length (days)6355
first opposition used2005
last opposition used2023
residual rms (arc-secs)0.75
perturbers coarse indicatorM-v
perturbers precise indicator003Ek
first observation date used2005-10-31.0
last observation date used2023-03-26.0
computer nameMPCLINUX
JD of orbit computation2456909.184750
perihelion JD uncertainty (days)6.6238E-04
argument of perihelion uncertainty (°)1.4132E-04
ascending node uncertainty (°)6.1467E-05
inclination uncertainty (°)4.6861E-06
eccentricity uncertainty 3.8465E-08
perihelion distance uncertainty (AU)1.2127E-07
Minimum Orbit Intersection Distances (in AU)
for orbit epoch: 2460000.5, reference: E2023-FI9
Mercury2.52428
Venus2.21467
Earth1.94486
Mars1.27173
Jupiter1.84799
Saturn6.04632
Uranus15.514
Neptune26.7501

Observations

287 total observations over interval: 2005 10 31.37054 – 2023 03 26.244498
These data are available for download (format description).

Date (UT) J2000 RA J2000 Dec Magn Location Ref
2005 10 31.37054 04 23 49.27 +17 50 07.6 20.8 V G96 – Mt. Lemmon Survey MPS 151097
2005 10 31.37447 04 23 49.09 +17 50 07.7 20.6 V G96 – Mt. Lemmon Survey MPS 151097
2005 10 31.37844 04 23 48.87 +17 50 06.7 20.8 V G96 – Mt. Lemmon Survey MPS 151097
2005 10 31.38246 04 23 48.76 +17 50 06.7 21.2 V G96 – Mt. Lemmon Survey MPS 151097
2005 11 01.38097 04 23 11.18 +17 48 56.5 20.9 V G96 – Mt. Lemmon Survey MPS 151097
2005 11 01.38898 04 23 10.86 +17 48 56.0 21.0 V G96 – Mt. Lemmon Survey MPS 151097
2005 11 01.39705 04 23 10.53 +17 48 55.4 20.6 V G96 – Mt. Lemmon Survey MPS 151097
2005 11 01.40506 04 23 10.21 +17 48 54.9 20.6 V G96 – Mt. Lemmon Survey MPS 151097
2005 12 01.31407 03 58 43.35 +17 08 47.6 20.3 V G96 – Mt. Lemmon Survey MPS 251448
2005 12 01.32146 03 58 42.92 +17 08 46.9 20.3 V G96 – Mt. Lemmon Survey MPS 251448
2005 12 01.32884 03 58 42.56 +17 08 46.2 20.2 V G96 – Mt. Lemmon Survey MPS 251448
2005 12 01.33623 03 58 42.16 +17 08 45.9 20.2 V G96 – Mt. Lemmon Survey MPS 251448
2005 12 01.37369 03 58 40.15 +17 08 42.8 20.2 V G96 – Mt. Lemmon Survey MPS 251448
2005 12 01.37544 03 58 40.08 +17 08 42.3 20.3 V G96 – Mt. Lemmon Survey MPS 251448
2005 12 01.37721 03 58 40.00 +17 08 42.3 20.4 V G96 – Mt. Lemmon Survey MPS 251448
2005 12 01.37898 03 58 39.90 +17 08 41.9 20.1 V G96 – Mt. Lemmon Survey MPS 251448
2005 12 29.19423 03 39 48.74 +16 54 05.0 21.2 V G96 – Mt. Lemmon Survey MPS 251448
2005 12 29.20312 03 39 48.52 +16 54 05.1 21.2 V G96 – Mt. Lemmon Survey MPS 251448
2005 12 29.21190 03 39 48.34 +16 54 05.5 20.8 V G96 – Mt. Lemmon Survey MPS 251448
2005 12 29.22107 03 39 48.06 +16 54 05.6 21.3 V G96 – Mt. Lemmon Survey MPS 251448
2007 01 27.47087 10 28 43.46 +14 52 23.5 20.8 V 691 – Steward Observatory, Kitt Peak-Spacewatch MPS 251448
2007 01 27.48896 10 28 42.82 +14 52 29.8 21.1 V 691 – Steward Observatory, Kitt Peak-Spacewatch MPS 251448
2007 01 27.50705 10 28 42.19 +14 52 35.7 21.3 V 691 – Steward Observatory, Kitt Peak-Spacewatch MPS 251448
2007 02 25.19569 10 07 35.36 +17 25 51.3 20.9 V 691 – Steward Observatory, Kitt Peak-Spacewatch MPS 251448
2007 02 25.21685 10 07 34.31 +17 25 57.6 20.9 V 691 – Steward Observatory, Kitt Peak-Spacewatch MPS 251448
2007 02 25.24450 10 07 32.92 +17 26 05.3 20.4 V 691 – Steward Observatory, Kitt Peak-Spacewatch MPS 251448
2008 05 15.30124 15 46 00.86 -15 45 15.4   691 – Steward Observatory, Kitt Peak-Spacewatch MPS 251448
2008 05 15.31659 15 46 00.08 -15 45 13.7   691 – Steward Observatory, Kitt Peak-Spacewatch MPS 251448
2008 05 15.33192 15 45 59.28 -15 45 11.3   691 – Steward Observatory, Kitt Peak-Spacewatch MPS 251448
2008 05 27.28258 15 36 06.31 -15 25 56.1 20.6 V 691 – Steward Observatory, Kitt Peak-Spacewatch MPS 251056
2008 05 27.30021 15 36 05.45 -15 25 54.3 20.7 V 691 – Steward Observatory, Kitt Peak-Spacewatch MPS 251056
2008 05 27.31785 15 36 04.57 -15 25 53.0 20.6 V 691 – Steward Observatory, Kitt Peak-Spacewatch MPS 251056
2008 05 30.35488 15 33 40.80 -15 21 47.6 20.8 V 691 – Steward Observatory, Kitt Peak-Spacewatch MPS 251056
2008 05 30.37249 15 33 39.96 -15 21 46.6 20.7 V 691 – Steward Observatory, Kitt Peak-Spacewatch MPS 251056
2008 05 30.39012 15 33 39.11 -15 21 45.1 21.2 V 691 – Steward Observatory, Kitt Peak-Spacewatch MPS 251056
2008 06 07.24507 15 27 56.51 -15 13 31.2 20.8 V 691 – Steward Observatory, Kitt Peak-Spacewatch MPS 251448
2008 06 07.26273 15 27 55.75 -15 13 30.6 20.7 V 691 – Steward Observatory, Kitt Peak-Spacewatch MPS 251448
2008 06 07.28039 15 27 55.03 -15 13 29.7 20.8 V 691 – Steward Observatory, Kitt Peak-Spacewatch MPS 251448
2010 10 08.407291 02 53 03.856 +10 57 00.92 21.67 w F51 – Pan-STARRS 1, Haleakala MPS 365752
2010 10 08.425519 02 53 03.223 +10 56 57.74 21.87 w F51 – Pan-STARRS 1, Haleakala MPS 365752
2010 10 08.443713 02 53 02.575 +10 56 54.40 21.80 w F51 – Pan-STARRS 1, Haleakala MPS 365752
2010 10 31.33341 02 36 30.20 +09 42 50.8 20.3 V G96 – Mt. Lemmon Survey MPS 353887
2010 10 31.34090 02 36 29.80 +09 42 49.4 20.5 V G96 – Mt. Lemmon Survey MPS 353887
2010 10 31.34838 02 36 29.44 +09 42 48.0 20.1 V G96 – Mt. Lemmon Survey MPS 353887
2010 10 31.35583 02 36 29.08 +09 42 46.6 20.3 V G96 – Mt. Lemmon Survey MPS 353887
2010 10 31.41265 02 36 26.20 +09 42 35.3 21.0 V G96 – Mt. Lemmon Survey MPS 353887
2010 10 31.42185 02 36 25.70 +09 42 33.9 20.7 V G96 – Mt. Lemmon Survey MPS 353887
2010 10 31.43020 02 36 25.27 +09 42 32.1 20.4 V G96 – Mt. Lemmon Survey MPS 353887
2010 10 31.44104 02 36 24.87 +09 42 29.4 20.1 V G96 – Mt. Lemmon Survey MPS 353887
2010 11 02.26996 02 34 54.87 +09 36 35.8 19.8 V G96 – Mt. Lemmon Survey MPS 353887
2010 11 02.27723 02 34 54.55 +09 36 34.2 20.3 V G96 – Mt. Lemmon Survey MPS 353887
2010 11 02.28444 02 34 54.15 +09 36 33.0 20.2 V G96 – Mt. Lemmon Survey MPS 353887
2010 11 02.29175 02 34 53.79 +09 36 31.7 20.6 V G96 – Mt. Lemmon Survey MPS 353887
2010 11 02.39693 02 34 48.43 +09 36 11.5 20.5 V G96 – Mt. Lemmon Survey MPS 353887
2010 11 02.40019 02 34 48.28 +09 36 10.6 20.6 V G96 – Mt. Lemmon Survey MPS 353887
2010 11 02.40341 02 34 48.10 +09 36 10.0 20.9 V G96 – Mt. Lemmon Survey MPS 353887
2010 11 02.40667 02 34 47.96 +09 36 09.3 20.5 V G96 – Mt. Lemmon Survey MPS 353887
2010 11 12.22344 02 26 50.78 +09 07 11.4 21.0 V G96 – Mt. Lemmon Survey MPS 355514
2010 11 12.23198 02 26 50.38 +09 07 10.1 20.8 V G96 – Mt. Lemmon Survey MPS 355514
2010 11 12.24066 02 26 49.95 +09 07 09.0 20.6 V G96 – Mt. Lemmon Survey MPS 355514
2010 11 12.24931 02 26 49.56 +09 07 07.3 20.6 V G96 – Mt. Lemmon Survey MPS 355514
2011 12 30.38061 08 46 00.10 +20 44 29.5 21.0 V 691 – Steward Observatory, Kitt Peak-Spacewatch MPS 405843
2011 12 30.39838 08 45 59.49 +20 44 34.0 20.8 V 691 – Steward Observatory, Kitt Peak-Spacewatch MPS 405843
2011 12 30.41614 08 45 58.86 +20 44 38.0 21.1 V 691 – Steward Observatory, Kitt Peak-Spacewatch MPS 405843
2012 01 19.41108 08 31 18.91 +22 10 28.2 20.3 V G96 – Mt. Lemmon Survey MPS 408699
2012 01 19.41862 08 31 18.51 +22 10 30.4 20.7 V G96 – Mt. Lemmon Survey MPS 408699
2012 01 19.42617 08 31 18.08 +22 10 32.2 20.6 V G96 – Mt. Lemmon Survey MPS 408699
2012 01 19.43374 08 31 17.68 +22 10 34.1 20.6 V G96 – Mt. Lemmon Survey MPS 408699
2012 01 26.30240 08 25 17.22 +22 39 52.0 20.6 V G96 – Mt. Lemmon Survey MPS 410038
2012 01 26.30760 08 25 16.96 +22 39 53.4 20.3 V G96 – Mt. Lemmon Survey MPS 410038
2012 01 26.31285 08 25 16.68 +22 39 55.0 20.9 V G96 – Mt. Lemmon Survey MPS 410038
2012 01 26.31808 08 25 16.39 +22 39 56.2 21.2 V G96 – Mt. Lemmon Survey MPS 410038
2012 01 26.50256 08 25 06.542 +22 40 42.46 20.5 i F51 – Pan-STARRS 1, Haleakala MPS 411464
2012 01 26.51549 08 25 05.826 +22 40 45.61 20.4 i F51 – Pan-STARRS 1, Haleakala MPS 411464
2012 01 26.52820 08 25 05.134 +22 40 48.67 20.5 r F51 – Pan-STARRS 1, Haleakala MPS 411464
2012 01 26.54048 08 25 04.466 +22 40 51.67 20.3 r F51 – Pan-STARRS 1, Haleakala MPS 411464
2012 03 01.16466 08 01 21.68 +24 13 13.3 21.4 V G96 – Mt. Lemmon Survey MPS 416025
2012 03 01.17281 08 01 21.50 +24 13 13.4 21.2 V G96 – Mt. Lemmon Survey MPS 416025
2012 03 01.18096 08 01 21.36 +24 13 14.1 21.1 V G96 – Mt. Lemmon Survey MPS 416025
2012 03 01.18909 08 01 21.10 +24 13 14.9 20.9 V G96 – Mt. Lemmon Survey MPS 416025
2013 03 16.46988 14 33 22.21 -09 08 29.9 21.2 V G96 – Mt. Lemmon Survey MPS 461536
2013 03 16.47638 14 33 22.14 -09 08 29.0 20.7 V G96 – Mt. Lemmon Survey MPS 461536
2013 03 16.48274 14 33 21.99 -09 08 28.2 20.8 V G96 – Mt. Lemmon Survey MPS 461536
2013 03 16.48916 14 33 21.88 -09 08 27.5 20.9 V G96 – Mt. Lemmon Survey MPS 461536
2013 03 18.46553 14 32 49.52 -09 03 41.5 20.5 V G96 – Mt. Lemmon Survey MPS 461536
2013 03 18.47270 14 32 49.38 -09 03 40.2 20.6 V G96 – Mt. Lemmon Survey MPS 461536
2013 03 18.48510 14 32 49.16 -09 03 38.4 20.7 V G96 – Mt. Lemmon Survey MPS 461536
2013 03 18.49226 14 32 49.05 -09 03 37.3 20.7 V G96 – Mt. Lemmon Survey MPS 461536
2013 04 21.42142 14 12 27.999 -07 08 27.20 20.2 i F51 – Pan-STARRS 1, Haleakala MPS 465451
2013 04 21.43294 14 12 27.440 -07 08 24.58 20.4 i F51 – Pan-STARRS 1, Haleakala MPS 465451
2013 04 22.40420 14 11 41.498 -07 04 55.23 20.2 i F51 – Pan-STARRS 1, Haleakala MPS 465451
